TimeMDT,TemperatureF,Dew PointF,Humidity,Sea Level PressureIn,VisibilityMPH,Wind Direction,Wind SpeedMPH,Gust SpeedMPH,PrecipitationIn,Events,Conditions,WindDirDegrees,DateUTC
12:15 AM,68.0,55.4,64,30.02,10.0,South,10.4,-,N/A,,Clear,190,2013-07-03 06:15:00
12:35 AM,68.0,55.4,64,30.01,10.0,South,10.4,-,N/A,,Clear,190,2013-07-03 06:35:00
12:55 AM,68.0,53.6,60,30.00,10.0,South,8.1,-,N/A,,Clear,190,2013-07-03 06:55:00
1:15 AM,66.2,53.6,64,30.00,10.0,SSW,6.9,-,N/A,,Clear,210,2013-07-03 07:15:00
1:35 AM,64.4,53.6,68,29.99,10.0,SSW,4.6,-,N/A,,Clear,200,2013-07-03 07:35:00
1:55 AM,62.6,53.6,72,29.99,10.0,SSW,3.5,-,N/A,,Clear,210,2013-07-03 07:55:00
2:15 AM,62.6,53.6,72,29.98,10.0,SSW,5.8,-,N/A,,Clear,200,2013-07-03 08:15:00
2:35 AM,62.6,53.6,72,29.98,10.0,Calm,Calm,-,N/A,,Clear,0,2013-07-03 08:35:00
3:15 AM,59.0,51.8,77,29.97,10.0,Calm,Calm,-,N/A,,Clear,0,2013-07-03 09:15:00
3:35 AM,57.2,51.8,82,29.97,10.0,Calm,Calm,-,N/A,,Clear,0,2013-07-03 09:35:00
3:55 AM,57.2,51.8,82,29.96,10.0,Calm,Calm,-,N/A,,Clear,0,2013-07-03 09:55:00
4:15 AM,57.2,51.8,82,29.96,10.0,Calm,Calm,-,N/A,,Clear,0,2013-07-03 10:15:00
4:35 AM,57.2,50.0,77,29.95,10.0,Calm,Calm,-,N/A,,Clear,0,2013-07-03 10:35:00
4:55 AM,57.2,48.2,72,29.95,10.0,Calm,Calm,-,N/A,,Clear,0,2013-07-03 10:55:00
5:15 AM,57.2,50.0,77,29.95,10.0,Calm,Calm,-,N/A,,Clear,0,2013-07-03 11:15:00
5:35 AM,55.4,50.0,82,29.95,10.0,Calm,Calm,-,N/A,,Clear,0,2013-07-03 11:35:00
5:55 AM,57.2,51.8,82,29.95,10.0,Calm,Calm,-,N/A,,Clear,0,2013-07-03 11:55:00
6:15 AM,60.8,53.6,77,29.95,10.0,SSW,3.5,-,N/A,,Clear,210,2013-07-03 12:15:00
6:35 AM,62.6,53.6,72,29.94,10.0,SSW,3.5,-,N/A,,Clear,200,2013-07-03 12:35:00
6:55 AM,64.4,53.6,68,29.94,10.0,South,4.6,-,N/A,,Clear,190,2013-07-03 12:55:00
7:15 AM,64.4,53.6,68,29.93,10.0,South,5.8,-,N/A,,Clear,190,2013-07-03 13:15:00
7:35 AM,66.2,53.6,64,29.93,10.0,South,4.6,-,N/A,,Clear,190,2013-07-03 13:35:00
7:55 AM,68.0,53.6,60,29.93,10.0,SSW,5.8,-,N/A,,Clear,200,2013-07-03 13:55:00
8:15 AM,69.8,55.4,60,29.93,9.0,South,4.6,-,N/A,,Clear,190,2013-07-03 14:15:00
8:35 AM,69.8,55.4,60,29.92,10.0,South,5.8,-,N/A,,Clear,180,2013-07-03 14:35:00
8:55 AM,71.6,57.2,60,29.92,10.0,South,6.9,-,N/A,,Clear,180,2013-07-03 14:55:00
9:15 AM,73.4,55.4,53,29.91,10.0,South,6.9,-,N/A,,Clear,180,2013-07-03 15:15:00
9:35 AM,75.2,57.2,53,29.91,10.0,South,8.1,-,N/A,,Clear,170,2013-07-03 15:35:00
10:15 AM,78.8,57.2,47,29.90,10.0,South,9.2,16.1,N/A,,Clear,170,2013-07-03 16:15:00
10:35 AM,80.6,59.0,48,29.89,10.0,South,8.1,-,N/A,,Clear,180,2013-07-03 16:35:00
10:55 AM,80.6,60.8,51,29.89,10.0,South,9.2,-,N/A,,Clear,180,2013-07-03 16:55:00
11:15 AM,82.4,60.8,48,29.88,10.0,South,8.1,-,N/A,,Clear,180,2013-07-03 17:15:00
11:35 AM,82.4,60.8,48,29.88,10.0,South,4.6,-,N/A,,Clear,180,2013-07-03 17:35:00
11:55 AM,86.0,60.8,43,29.87,10.0,SSW,9.2,-,N/A,,Clear,200,2013-07-03 17:55:00
12:15 PM,87.8,60.8,40,29.87,10.0,SSW,10.4,-,N/A,,Clear,200,2013-07-03 18:15:00
12:35 PM,87.8,60.8,40,29.87,10.0,South,11.5,-,N/A,,Clear,190,2013-07-03 18:35:00
1:15 PM,89.6,60.8,38,29.85,10.0,South,12.7,-,N/A,,Clear,180,2013-07-03 19:15:00
1:35 PM,89.6,59.0,36,29.85,10.0,South,12.7,18.4,N/A,,Clear,180,2013-07-03 19:35:00
1:55 PM,91.4,59.0,34,29.84,10.0,South,10.4,-,N/A,,Clear,170,2013-07-03 19:55:00
2:15 PM,91.4,57.2,31,29.84,10.0,South,12.7,-,N/A,,Clear,170,2013-07-03 20:15:00
2:35 PM,91.4,57.2,31,29.83,10.0,South,11.5,-,N/A,,Clear,170,2013-07-03 20:35:00
2:55 PM,91.4,59.0,34,29.83,10.0,SSE,10.4,16.1,N/A,,Clear,150,2013-07-03 20:55:00
3:15 PM,91.4,59.0,34,29.82,10.0,South,13.8,-,N/A,,Clear,170,2013-07-03 21:15:00
3:35 PM,91.4,59.0,34,29.82,10.0,South,11.5,19.6,N/A,,Clear,170,2013-07-03 21:35:00
3:55 PM,91.4,59.0,34,29.81,10.0,SSE,13.8,18.4,N/A,,Clear,160,2013-07-03 21:55:00
4:15 PM,91.4,59.0,34,29.80,10.0,SSE,11.5,16.1,N/A,,Clear,160,2013-07-03 22:15:00
4:35 PM,91.4,59.0,34,29.80,10.0,South,10.4,-,N/A,,Clear,170,2013-07-03 22:35:00
4:55 PM,91.4,60.8,36,29.80,10.0,SSE,11.5,-,N/A,,Clear,160,2013-07-03 22:55:00
5:15 PM,91.4,60.8,36,29.79,10.0,South,9.2,-,N/A,,Clear,170,2013-07-03 23:15:00
5:35 PM,91.4,60.8,36,29.79,7.0,SSE,8.1,-,N/A,,Clear,160,2013-07-03 23:35:00
5:55 PM,89.6,60.8,38,29.78,10.0,SSE,9.2,-,N/A,,Clear,160,2013-07-03 23:55:00
6:15 PM,89.6,62.6,40,29.77,10.0,SSE,10.4,-,N/A,,Clear,150,2013-07-04 00:15:00
6:35 PM,89.6,62.6,40,29.77,10.0,SSE,10.4,-,N/A,,Clear,160,2013-07-04 00:35:00
6:55 PM,87.8,62.6,43,29.76,10.0,SSE,9.2,-,N/A,,Clear,160,2013-07-04 00:55:00
7:15 PM,87.8,62.6,43,29.76,10.0,South,8.1,-,N/A,,Clear,170,2013-07-04 01:15:00
7:35 PM,84.2,62.6,48,29.76,10.0,South,9.2,-,N/A,,Clear,170,2013-07-04 01:35:00
7:55 PM,82.4,62.6,51,29.76,10.0,South,6.9,-,N/A,,Clear,180,2013-07-04 01:55:00
8:15 PM,80.6,62.6,54,29.75,10.0,South,8.1,-,N/A,,Clear,190,2013-07-04 02:15:00
8:35 PM,80.6,62.6,54,29.75,10.0,South,6.9,-,N/A,,Clear,190,2013-07-04 02:35:00
8:55 PM,77.0,62.6,61,29.75,9.0,SSW,3.5,-,N/A,,Clear,200,2013-07-04 02:55:00
9:15 PM,75.2,62.6,65,29.75,10.0,South,4.6,-,N/A,,Clear,190,2013-07-04 03:15:00
9:35 PM,75.2,60.8,61,29.76,10.0,Calm,Calm,-,N/A,,Clear,0,2013-07-04 03:35:00
9:55 PM,75.2,60.8,61,29.76,10.0,South,3.5,-,N/A,,Clear,190,2013-07-04 03:55:00
10:15 PM,75.2,59.0,57,29.77,10.0,WSW,8.1,-,N/A,,Clear,250,2013-07-04 04:15:00
10:35 PM,77.0,57.2,50,29.77,10.0,West,6.9,-,N/A,,Clear,260,2013-07-04 04:35:00
10:55 PM,75.2,59.0,57,29.76,10.0,West,10.4,-,N/A,,Clear,280,2013-07-04 04:55:00
11:15 PM,75.2,66.2,73,29.77,10.0,NW,8.1,-,N/A,,Clear,310,2013-07-04 05:15:00
11:35 PM,75.2,64.4,69,29.77,10.0,NNW,13.8,19.6,N/A,,Clear,330,2013-07-04 05:35:00
11:55 PM,75.2,66.2,73,29.77,10.0,NNW,10.4,-,N/A,,Clear,330,2013-07-04 05:55:00